AirNav   ATP
 
 488 users online  

F92 Kingfisher Airport
Kingfisher, Oklahoma, USA

GOING TO KINGFISHER?


FAA INFORMATION EFFECTIVE 19 JULY 2018

Location

FAA Identifier: F92
Lat/Long: 35-52-36.0200N / 097-57-10.5750W
35-52.600333N / 097-57.176250W
35.8766722 / -97.9529375
(estimated)
Elevation: 1072 ft. / 327 m (estimated)
Variation: 07E (1985)
From city: 1 mile NW of KINGFISHER, OK
Time zone: UTC -5 (UTC -6 during Standard Time)
Zip code: 73750

Airport Operations

Airport use: Open to the public
Activation date: 10/1945
Control tower: no
ARTCC: FORT WORTH CENTER
FSS: MC ALESTER FLIGHT SERVICE STATION
NOTAMs facility: MLC (NOTAM-D service available)
Attendance: UNATNDD
Wind indicator: lighted
Segmented circle: no
Lights: DUSK-DAWN MIRL RY 18/36 PRESET LOW INTST; TO INCR INTST ACTVT - CTAF.

Airport Communications

CTAF: 122.9

Nearby radio navigation aids

VOR radial/distance  VOR name  Freq  Var
IFIr021/5.0KINGFISHER VORTAC114.7009E
PWAr316/25.4WILEY POST VOR/DME113.4008E
ENDr178/28.1VANCE VORTAC115.4005E
ODGr187/30.9WOODRING VOR/DME109.0008E
IRWr325/35.3WILL ROGERS VORTAC114.1007E

Airport Services

Fuel available: 100LL
AUTOMATED CREDIT CARD FUEL SYSTEM.
Airframe service: NONE
Powerplant service: NONE
Bottled oxygen: NONE
Bulk oxygen: NONE

Runway Information

Runway 18/36

Dimensions: 2800 x 60 ft. / 853 x 18 m
Surface: concrete, in good condition
Weight bearing capacity: 
PCN 4 /F/D/Z/U
Runway edge lights: medium intensity
Gradient: N.
RUNWAY 18  RUNWAY 36
Latitude: 35-52.831000N35-52.369500N
Longitude: 097-57.177333W097-57.175167W
Elevation: 1072.0 ft.1053.0 ft.
Gradient: 0.1%0.7% UP
Traffic pattern: leftright
Runway heading: 173 magnetic, 180 true353 magnetic, 360 true
Markings: basic, in good conditionbasic, in good condition
Obstructions: 28 ft. trees, 540 ft. from runway, 50 ft. right of centerline, 12:1 slope to clearnone

Airport Ownership and Management from official FAA records

Ownership: Publicly-owned
Owner: CITY OF KINGFISHER
301 N. MAIN STREET
KINGFISHER, OK 73750
Phone 405-375-3705
Manager: MIKE BROOKS
301 N. MAIN STREET
KINGFISHER, OK 73750
Phone 405-375-4901
OR 405-368-9491.

Airport Operational Statistics

Aircraft based on the field: 11
Single engine airplanes: 11
    
Aircraft operations: avg 77/week *
62% transient general aviation
37% local general aviation
<1% military
* for 12-month period ending 09 February 2018

Instrument Procedures

There are no published instrument procedures at F92.

Some nearby airports with instrument procedures:

KHSD - Sundance Airport (20 nm SE)
KJWG - Watonga Regional Airport (23 nm W)
KRCE - Clarence E Page Municipal Airport (24 nm S)
KRQO - El Reno Regional Airport (24 nm S)
KPWA - Wiley Post Airport (25 nm SE)
 
Loc | Ops | Rwys | IFR | FBO | Links
Com | Nav | Svcs | Stats | Notes


 
Area around F92 (Kingfisher Airport)
 
Road maps at: MapQuest Bing Google
 
Aerial photo
No photo
 
Sectional chart

 
Airport distance calculator
Flying to Kingfisher Airport? Find the distance to fly.

From to F92

Sunrise and sunset
Times for 14-Aug-2018
 Local
(UTC-5)
 Zulu
(UTC)
Morning civil twilight06:2311:23
Sunrise06:5111:51
Sunset20:2201:22
Evening civil twilight20:4901:49

Current date and time
Zulu (UTC)  14-Aug-2018 10:03:39
Local (UTC-5)  14-Aug-2018 05:03:39
 
METAR
KHSD 
20nm SE 
140955Z AUTO 18008KT 5SM BR OVC003 21/21 A2991 RMK A01
KJWG 
23nm W 
140955Z AUTO 15005KT 1/2SM FG OVC001 21/21 A2992 RMK AO2 T02050205
KRCE 
24nm S 
140955Z AUTO 16007G12KT 1/4SM FG OVC002 21/21 A2992 RMK AO2
KRQO 
24nm S 
140955Z AUTO 17011KT 1/4SM FG OVC002 21/20 A2993 RMK AO2 T02060204
KPWA 
25nm SE 
140953Z AUTO 17010KT 5SM BR OVC002 21/21 A2991 RMK AO2 SLP116 T02110211
KEND 
26nm N 
140956Z AUTO 16006KT 9SM DZ BKN002 OVC110 21/21 A2990 RMK AO2 VIS 2 3/4 RWY17R VIS 7/8 RWY35L DZB0858 SLP116 P0000 T02100210 $
KGOK 
27nm E 
140953Z AUTO 19004KT 10SM BKN007 BKN011 21/21 A2991 RMK AO2 CIG 005V010 SLP119 T02110206
KWDG 
31nm N 
140930Z AUTO 16005KT OVC003 21/21 A2989 RMK AO2 PWINO
KOKC 
34nm SE 
140954Z 17006KT 1/2SM R35R/4000VP6000FT FG VV002 20/20 A2992 RMK AO2 T02000200
KTIK 
40nm SE 
140956Z AUTO 18005KT 10SM FEW042 20/20 A2992 RMK AO2 SLP128 T02040204 $
TAF
KEND 
26nm N 
132300Z 1323/1424 18012KT 9999 SCT015 BKN050 QNH2995INS BECMG 1405/1406 17006KT 8000 BR BKN005 BKN020 QNH2991INS BECMG 1414/1415 18009KT 8000 -SHRA SCT015 BKN030 QNH2992INS TEMPO 1414/1417 21012G20KT 8000 -TSRA SCT015 BKN030CB BECMG 1417/1418 20010G15KT 9999 NSW FEW020 BKN040 QNH2989INS BECMG 1423/1424 VRB06KT 9999 BKN050 QNH2986INS TX26/1323Z TN22/1410Z LAST NO AMDS AFT 1323 NEXT 1410
NOTAMs
Click for the latest NOTAMs
NOTAMs are issued by the DoD/FAA and will open in a separate window not controlled by AirNav.

 

 
 

FBO, Fuel Providers, and Aircraft Ground Support

  
 Business Name 
 
 Contact 
 
 Services / Description 
 
Fuel Prices
 
Comments
  
City of Kingfisher (FBO) 405-375-4901
405-368-9491
[web site]
[email]
Airport management, Aviation fuel, Aircraft parking (ramp or tiedown), Hangar leasing / sales

More info about City of Kingfisher (FBO)
independent
100LL
SS $4.16 
 Updated 10-Aug-2018
 
   write
SS=Self service
Update Fuel Prices
 

Would you like to see your business listed on this page?

 If your business provides an interesting product or service to pilots, flight crews, aircraft, or users of the Kingfisher Airport, you should consider listing it here.  To start the listing process, click on the button below
 
Add a business
 

Other Pages about Kingfisher Airport

www.mlcafss.jccbi.gov/...
 
Update a link
 
Copyright © AirNav, LLC. All rights reserved. Privacy Policy  Contact